Regional Weather Roundup
Issued by NWS

Home | Current Version | Previous Version | Text Only | Print | Product List | Glossary On
Versions: 1 2 3 4 5 6 7 8 9 10 11 12 13 14 15 16 17 18 19 20 21 22 23 24 25 26 27 28 29 30 31 32 33 34 35 36 37 38 39 40 41 42 43 44 45 46 47 48 49 50
000
ASUS43 KDTX 240610
RWRMI
MICHIGAN HOURLY REGIONAL WEATHER ROUNDUP
NATIONAL WEATHER SERVICE DETROIT/PONTIAC MI
200 AM EDT MON JUL 24 2017

NOTE: "FAIR" INDICATES FEW OR NO CLOUDS BELOW 12,000 FEET WITH NO
SIGNIFICANT WEATHER AND/OR OBSTRUCTION TO VISIBILITY.

MIZ047>049-052>055-059>063-066>070-074>076-081>083-240700-
SOUTHEAST LOWER MICHIGAN

CITY           SKY/WX    TMP DP  RH WIND       PRES   REMARKS
ADRIAN         PTCLDY    70  64  81 N8        29.82S
6HR MIN TEMP:  69; 6HR MAX TEMP:  77;

ALMA           PTCLDY    65  60  85 N8        29.86R
ANN ARBOR      CLEAR     60  60 100 SW3       29.81R FOG
BAD AXE        CLOUDY    63  61  92 N12       29.82R
6HR MIN TEMP:  63; 6HR MAX TEMP:  67;

CARO           PTCLDY    64  61  91 NW5       29.82R
DETROIT CITY   CLEAR     71  62  73 NW3       29.80R
6HR MIN TEMP:  70; 6HR MAX TEMP:  83;

DETROIT        CLOUDY    69  66  90 W3        29.82R
6HR MIN TEMP:  68; 6HR MAX TEMP:  80; 6HR PCP:  0.06;

FLINT          MOCLDY    66  63  90 N5        29.83R
6HR MIN TEMP:  65; 6HR MAX TEMP:  80;

GROSSE ILE     PTCLDY    68  65  90 NW3       29.79S
6HR MIN TEMP:  68; 6HR MAX TEMP:  77;

HILLSDALE      MOCLDY    68  63  83 NW5       29.84S
HOWELL         CLEAR     65  63  93 NW6       29.83S
6HR MIN TEMP:  64; 6HR MAX TEMP:  74; 6HR PCP:  0.13;


CITY           SKY/WX    TMP DP  RH WIND       PRES   REMARKS
JACKSON        CLEAR     67  62  84 NW6       29.84R
6HR MIN TEMP:  66; 6HR MAX TEMP:  78;

LAMBERTVILLE   PTCLDY    70  68  94 W3        29.81S
6HR MIN TEMP:  69; 6HR MAX TEMP:  76;

LANSING        PTCLDY    67  61  81 NW6       29.85R
6HR MIN TEMP:  66; 6HR MAX TEMP:  79;

LAPEER         CLOUDY    65  64  97 N6        29.82S
6HR MIN TEMP:  63; 6HR MAX TEMP:  68; 6HR PCP:  0.28;

MASON          MOCLDY    64  62  94 N3        29.84S
MONROE         PTCLDY    69  68  98 NW5       29.80R
6HR MIN TEMP:  69; 6HR MAX TEMP:  76;

MT. CLEMENS    CLEAR     67  64  90 NW6       29.79R
6HR MIN TEMP:  66; 6HR MAX TEMP:  77;

PONTIAC        CLEAR     68  63  84 W3        29.81R
6HR MIN TEMP:  68; 6HR MAX TEMP:  80;

PORT HOPE        N/A     66  62  87 VRB6      29.79R
6HR MIN TEMP:  66; 6HR MAX TEMP:  68;

PORT HURON     CLEAR     64  63  94 CALM      29.80R FOG
TRI CITIES     CLEAR     64  62  93 N9        29.84R
6HR MIN TEMP:  64; 6HR MAX TEMP:  77;

MIDLAND        FAIR      63  60  88 NW5       29.84S
6HR MIN TEMP:  63; 6HR MAX TEMP:  76;

TROY           CLEAR     71  60  70 CALM      29.83R
SAGINAW HB     PTCLDY    63  61  94 NW8       29.83R
$$
MIZ043>046-050>051-056>058-064>065-071>073-077>080-240700-
SOUTHWEST LOWER MICHIGAN

CITY           SKY/WX    TMP DP  RH WIND       PRES   REMARKS
BATTLE CREEK   CLEAR     68  64  87 NW8       29.86R
6HR MIN TEMP:  68; 6HR MAX TEMP:  79;

BENTON HARBOR  CLEAR     69  64  84 VRB5      29.87S
6HR MIN TEMP:  69; 6HR MAX TEMP:  75; 6HR PCP: TRACE;

BIG RAPIDS     CLOUDY    63  59  88 NW5       29.87R
6HR MIN TEMP:  62; 6HR MAX TEMP:  73;

COLDWATER      MOCLDY    69  67  95 NW5       29.85R
6HR MIN TEMP:  68; 6HR MAX TEMP:  79;

FREMONT        FAIR      61  61 100 N5        29.87S
HOLLAND        CLEAR     66  61  84 N5        29.88R
6HR MIN TEMP:  66; 6HR MAX TEMP:  76;

IONIA          MOCLDY    66  60  82 NW6       29.85R
6HR MIN TEMP:  66; 6HR MAX TEMP:  77;

KALAMAZOO      CLEAR     67  61  81 N7        29.86R
6HR MIN TEMP:  67; 6HR MAX TEMP:  79;

LUDINGTON      CLOUDY    62  60  95 N3        29.88S
6HR MIN TEMP:  62; 6HR MAX TEMP:  68;

MARSHALL       CLEAR     66  65  97 CALM      29.85S
6HR MIN TEMP:  66; 6HR MAX TEMP:  78;

MOUNT PLEASANT PTCLDY    64  57  77 CALM      29.85S
MUSKEGON       CLEAR     66  62  87 N7        29.88R
6HR MIN TEMP:  65; 6HR MAX TEMP:  79;

SOUTH HAVEN    PTCLDY    68  66  93 N7        29.88R
$$
MIZ016>042-240700-
NORTHERN LOWER MICHIGAN

CITY           SKY/WX    TMP DP  RH WIND       PRES   REMARKS
ALPENA         LGT RAIN  59  59 100 N15       29.88R
6HR MIN TEMP:  59; 6HR MAX TEMP:  64; 6HR PCP:  0.23;

BEAVER ISLAND  PTCLDY    58  55  88 NE8       29.96R
6HR MIN TEMP:  57; 6HR MAX TEMP:  61;

BELLAIRE       CLOUDY    60  53  77 NE8G18    29.92S
6HR MIN TEMP:  60; 6HR MAX TEMP:  70;

CADILLAC       CLOUDY    62  57  81 N6        29.89R
CHARLEVOIX     CLOUDY    60  54  79 NE12      29.96S
FRANKFORT      CLOUDY    64  60  87 NE7       29.90S
GAYLORD        CLOUDY    57  54  89 NE8G16    29.92R
6HR MIN TEMP:  57; 6HR MAX TEMP:  65; 6HR PCP:  0.01;

GRAYLING       CLOUDY    57  55  90 N8        29.91S
6HR MIN TEMP:  57; 6HR MAX TEMP:  65;

HARBOR SPRINGS CLOUDY    59  54  84 NE8       29.93S
HOUGHTON LAKE  CLOUDY    59  57  93 N8        29.89S
6HR MIN TEMP:  59; 6HR MAX TEMP:  71; 6HR PCP: TRACE;

MANISTEE       CLOUDY    64  59  83 NE7       29.89R
OSCODA         DRIZZLE   61  59  95 NW13G18   29.83S
6HR MIN TEMP:  61; 6HR MAX TEMP:  69;

PELLSTON       CLOUDY    59  55  87 N10       29.94R
6HR MIN TEMP:  59; 6HR MAX TEMP:  61; 6HR PCP:  0.01;

ROGERS CITY    CLOUDY    59  57  91 NE10G18   29.91S
TRAVERSE CITY  CLOUDY    62  55  77 NE9G20    29.90R
6HR MIN TEMP:  62; 6HR MAX TEMP:  70;

$$
MIZ007>008-015-240700-
EASTERN UPPER MICHIGAN

CITY           SKY/WX    TMP DP  RH WIND       PRES   REMARKS
KINROSS        CLEAR     53  51  93 NW7       29.96S
6HR MIN TEMP:  53; 6HR MAX TEMP:  58;

MACKINAC ISLAN MOCLDY    58  56  94 NE15G22   29.94S
6HR MIN TEMP:  57; 6HR MAX TEMP:  60;

NEWBERRY       CLEAR     51  50  97 NW6       29.98R
6HR MIN TEMP:  51; 6HR MAX TEMP:  56;

S. S. MARIE    CLEAR     56  51  84 N3        29.96R
6HR MIN TEMP:  56; 6HR MAX TEMP:  59; 6HR PCP: TRACE;

MUNISING         N/A     50  50 100 VRB3      30.00R
6HR MIN TEMP:  50; 6HR MAX TEMP:  62;

$$
MIZ004>006-011>014-085-240700-
CENTRAL UPPER MICHIGAN

CITY           SKY/WX    TMP DP  RH WIND       PRES   REMARKS
MANISTIQUE     CLEAR     51  48  89 N6        29.98S
6HR MIN TEMP:  51; 6HR MAX TEMP:  59;

ESCANABA       CLEAR     56  54  93 N3        29.99R
6HR MIN TEMP:  56; 6HR MAX TEMP:  62;

MENOMINEE      CLOUDY    61  55  81 N9        29.98R
6HR MIN TEMP:  61; 6HR MAX TEMP:  65;

SAWYER-GWINN   CLEAR     47  46  97 N3        30.02F
6HR MIN TEMP:  47; 6HR MAX TEMP:  56;

$$
MIZ001>003-009>011-084-240700-
WESTERN UPPER MICHIGAN

CITY           SKY/WX    TMP DP  RH WIND       PRES   REMARKS
IRON MOUNTAIN  CLOUDY    55  50  83 VRB5      30.01R
6HR MIN TEMP:  54; 6HR MAX TEMP:  64;

HOUGHTON       CLEAR     46  44  93 NW5       30.03S
6HR MIN TEMP:  46; 6HR MAX TEMP:  64;

COPPER HARBOR    N/A     51  48  89 W5        30.03S
6HR MIN TEMP:  51; 6HR MAX TEMP:  63;

IRONWOOD       FOG       55  55 100 CALM      30.07R VSB 1/4
6HR MIN TEMP:  55; 6HR MAX TEMP:  61;

$$

ABBREVIATIONS USED IN REMARKS
   TC - TEMPERATURE IN CELSIUS
  WCI - WIND CHILL INDEX
   HX - HEAT INDEX
  VSB - VISIBILITY





USA.gov is the U.S. government's official web portal to all federal, state and local government web resources and services.